Total_Precipitation_Accumulation
0.99 1.00 0.83 1.14 1.45 1.62 1.92 2.05 2.64 2.79 2.11 2.17 2.34 2.63 2.35 2.04 1.79 1.58 1.64 1.36 1.60 1.70 1.76 1.72 1.39 1.30 1.46 1.30 1.62 1.98 2.02 2.01 2.31 2.87 3.05 2.97 3.25 3.38 3.11 3.38 3.79 3.93 4.16 4.22
0.99 0.76 0.59 0.87 1.10 0.81 0.97 1.52 1.73 1.10 1.84 1.79 1.62 1.59 1.63 1.55 1.36 1.18 1.17 0.94 1.09 1.01 1.18 1.37 1.22 1.12 1.25 1.33 1.26 1.46 1.64 1.96 1.92 1.81 1.93 2.27 2.39 2.45 2.26 2.74 3.24 3.31 3.88 3.67
0.96 0.43 0.66 1.53 1.34 0.74 0.57 0.62 0.68 0.94 1.63 1.19 1.09 0.94 1.16 1.09 1.00 0.84 0.82 0.76 1.01 0.94 0.74 0.76 1.03 1.07 1.14 1.35 1.29 1.20 1.38 1.50 1.56 1.76 2.07 2.10 2.44 2.48 2.53 2.48 2.74 3.08 3.28 2.96
1.04 0.84 1.87 1.32 0.52 0.42 0.31 0.33 0.43 0.43 0.49 0.59 0.60 0.60 0.84 0.91 0.92 0.94 0.85 0.89 1.16 1.22 0.94 0.74 0.81 0.84 0.89 0.94 1.08 1.26 1.27 1.45 1.56 1.45 1.52 1.71 1.97 2.24 2.77 3.18 3.13 2.89 2.67 2.68
1.41 0.93 0.80 0.47 0.25 0.32 0.39 0.38 0.26 0.19 0.28 0.29 0.23 0.32 0.73 0.95 0.66 0.83 0.74 0.59 0.48 0.68 0.94 0.92 0.84 0.77 0.71 0.77 0.76 0.81 1.09 1.19 1.26 1.42 1.57 1.61 1.75 2.11 2.25 2.43 2.42 2.50 2.48 2.40
1.93 1.43 0.87 0.52 0.14 0.12 0.38 0.83 0.26 0.13 0.13 0.14 0.20 0.47 0.47 0.56 0.59 0.73 0.46 0.24 0.16 0.20 0.31 0.47 0.71 1.02 0.98 0.90 0.93 0.86 0.92 1.08 1.20 1.31 1.64 1.94 2.13 2.04 1.89 1.91 2.18 2.36 2.51 2.57
2.31 2.47 1.18 0.36 0.16 0.17 0.97 1.24 0.37 0.28 0.20 0.14 0.23 0.36 0.48 0.36 0.60 0.74 0.22 0.09 0.06 0.08 0.17 0.27 0.34 0.52 0.81 0.92 0.95 0.98 0.90 0.95 1.22 1.48 1.57 1.76 1.89 1.99 2.09 2.11 2.05 2.15 2.29 2.43
1.94 2.48 1.86 0.56 0.57 0.90 1.12 0.50 0.23 0.19 0.23 0.28 0.31 0.44 0.62 0.63 0.63 0.40 0.24 0.22 0.21 0.13 0.09 0.10 0.17 0.28 0.52 0.77 0.68 0.61 0.68 0.74 0.81 0.90 1.18 1.35 1.53 1.69 1.67 1.68 1.77 1.78 1.82 1.97
1.29 1.78 1.42 1.10 1.03 0.64 0.39 0.48 0.39 0.24 0.29 0.84 0.92 0.99 0.98 0.99 0.72 0.51 0.31 0.32 0.28 0.20 0.23 0.19 0.26 0.37 0.61 0.64 0.59 0.64 0.66 0.75 0.82 0.83 0.89 1.06 1.16 1.24 1.23 1.26 1.26 1.26 1.27 1.36
1.49 1.18 0.86 1.25 0.99 0.60 0.47 0.53 0.44 0.25 0.26 0.60 1.06 1.17 1.38 1.21 1.12 0.75 0.36 0.30 0.36 0.23 0.22 0.30 0.72 0.83 0.64 0.38 0.35 0.45 0.60 0.71 0.82 0.81 0.91 0.92 0.89 0.83 0.78 0.86 0.92 0.99 1.10 1.16
1.45 1.12 0.97 1.00 1.25 0.69 0.42 0.40 0.40 0.19 0.18 0.28 0.52 0.65 1.00 0.98 0.83 0.99 0.74 0.37 0.45 0.32 0.31 0.42 0.62 0.66 0.53 0.49 0.42 0.50 0.49 0.64 0.67 0.69 0.70 0.65 0.76 0.85 0.74 0.85 0.94 0.94 1.09 1.22
1.48 1.47 1.37 1.22 1.10 1.13 0.74 0.49 0.42 0.52 0.41 0.46 0.50 0.44 0.65 0.58 0.74 0.69 0.94 0.77 0.68 0.56 0.48 0.46 0.33 0.46 0.59 0.67 0.49 0.58 0.50 0.45 0.65 0.63 0.63 0.65 0.66 0.95 1.18 1.15 1.13 1.18 1.23 1.25
0.63 0.78 1.14 1.18 0.72 0.41 0.34 0.22 0.14 0.33 0.28 0.34 0.56 0.50 0.89 0.49 0.73 0.86 1.03 0.82 0.75 0.79 0.76 0.64 0.45 0.48 0.71 0.78 0.67 0.70 0.65 0.50 0.58 0.69 0.65 0.67 0.81 0.81 0.95 1.37 1.45 1.57 1.63 1.67
0.13 0.24 0.30 0.21 0.17 0.04 0.02 0.02 0.02 0.05 0.10 0.16 0.30 0.49 1.29 0.88 0.90 0.91 0.89 0.68 0.74 0.83 1.01 1.09 0.75 0.75 0.99 1.25 1.20 1.26 1.25 1.24 1.01 1.00 1.07 1.11 1.24 1.50 1.57 1.63 1.87 2.17 2.17 1.93
0.07 0.07 0.06 0.05 0.03 0.02 0.02 0.02 0.02 0.03 0.08 0.18 0.20 0.32 0.62 1.07 1.27 1.07 0.90 0.81 0.90 0.98 1.22 1.28 1.00 1.00 0.99 1.16 1.36 1.45 1.56 1.63 1.56 1.49 1.52 1.59 1.54 1.63 1.70 1.59 1.50 1.48 1.46 1.48
0.11 0.08 0.08 0.10 0.11 0.12 0.11 0.12 0.16 0.28 0.33 0.24 0.19 0.35 0.62 1.25 1.65 1.35 0.93 0.72 0.75 0.94 0.98 0.86 0.97 1.33 1.30 1.31 1.50 1.68 1.69 1.85 1.72 1.57 1.56 1.47 1.41 1.28 1.29 1.25 1.13 0.97 0.90 0.91
0.19 0.16 0.17 0.17 0.17 0.23 0.29 0.36 0.46 0.45 0.36 0.36 0.41 0.44 0.87 1.38 1.28 0.99 0.95 0.83 0.93 1.09 1.18 1.19 1.50 1.55 1.63 1.73 1.75 1.77 1.63 1.55 1.41 1.21 1.18 1.12 1.10 1.09 1.08 1.12 1.08 0.91 0.87 0.75
0.23 0.24 0.26 0.29 0.38 0.48 0.47 0.36 0.29 0.32 0.40 0.44 0.44 0.45 0.88 1.32 1.36 1.06 0.98 0.82 0.79 0.97 1.23 1.46 1.41 1.38 1.47 1.55 1.22 1.09 1.09 0.97 0.89 0.88 0.90 0.95 0.89 0.87 0.87 0.92 0.91 0.82 0.80 0.73
0.25 0.35 0.41 0.49 0.51 0.39 0.32 0.35 0.41 0.43 0.52 0.59 0.62 0.80 1.12 1.44 1.43 1.29 1.12 0.87 0.85 0.81 1.08 0.94 0.83 0.65 0.68 0.82 0.83 0.72 0.73 0.73 0.69 0.70 0.72 0.73 0.71 0.71 0.77 0.93 0.98 0.92 0.84 0.85
0.43 0.50 0.36 0.29 0.31 0.38 0.46 0.60 0.62 0.69 0.88 0.80 0.83 0.95 1.20 1.61 1.30 0.97 0.73 0.64 0.65 0.67 0.54 0.43 0.34 0.37 0.39 0.48 0.57 0.67 0.80 0.78 0.76 0.78 0.75 0.72 0.71 0.74 0.80 0.87 0.90 1.04 1.03 0.88
0.71 0.70 0.83 0.74 0.81 0.96 0.85 0.88 0.70 0.79 0.98 0.84 0.71 0.82 0.91 1.08 0.96 0.67 0.47 0.48 0.60 0.44 0.33 0.27 0.21 0.21 0.20 0.30 0.32 0.35 0.54 0.83 0.95 0.95 0.97 1.02 0.97 0.93 0.95 0.99 1.00 1.03 1.01 0.91
0.85 0.91 1.02 0.93 0.84 1.10 1.08 0.89 0.66 0.64 0.64 0.62 0.71 0.77 0.64 0.66 0.65 0.52 0.42 0.39 0.39 0.26 0.17 0.14 0.14 0.12 0.13 0.18 0.22 0.24 0.25 0.40 0.62 0.77 0.88 1.03 1.18 1.20 1.20 1.17 1.15 1.05 0.98 0.93
0.69 0.68 0.72 0.70 0.66 0.68 0.75 0.71 0.65 0.49 0.47 0.51 0.51 0.57 0.58 0.59 0.57 0.50 0.47 0.41 0.27 0.23 0.15 0.14 0.16 0.13 0.15 0.24 0.29 0.30 0.33 0.45 0.55 0.65 0.79 0.94 1.08 1.15 1.16 1.12 1.06 1.05 1.05 0.96
0.55 0.51 0.49 0.46 0.35 0.27 0.35 0.51 0.46 0.45 0.42 0.38 0.29 0.29 0.30 0.40 0.51 0.41 0.31 0.27 0.28 0.31 0.32 0.30 0.28 0.27 0.34 0.49 0.51 0.49 0.51 0.62 0.65 0.62 0.72 0.91 0.98 0.94 0.96 0.95 0.91 0.89 0.91 0.91
0.44 0.43 0.39 0.31 0.29 0.38 0.30 0.25 0.17 0.18 0.21 0.30 0.36 0.39 0.37 0.30 0.40 0.37 0.27 0.28 0.24 0.26 0.31 0.36 0.42 0.47 0.62 0.68 0.63 0.57 0.59 0.68 0.65 0.66 0.72 0.75 0.69 0.71 0.73 0.74 0.78 0.80 0.75 0.73
0.36 0.34 0.33 0.28 0.27 0.23 0.21 0.16 0.19 0.21 0.18 0.27 0.37 0.32 0.27 0.21 0.20 0.21 0.25 0.29 0.30 0.32 0.38 0.39 0.41 0.46 0.51 0.52 0.51 0.47 0.52 0.55 0.58 0.61 0.58 0.53 0.50 0.53 0.54 0.62 0.67 0.64 0.61 0.62
0.34 0.31 0.24 0.22 0.22 0.22 0.23 0.25 0.27 0.32 0.34 0.34 0.32 0.33 0.28 0.27 0.24 0.22 0.25 0.26 0.29 0.36 0.44 0.47 0.47 0.51 0.50 0.48 0.46 0.45 0.45 0.47 0.48 0.47 0.48 0.50 0.51 0.51 0.52 0.51 0.54 0.56 0.54 0.51